Location: Gräfendorf
(50.8458°N, 10.2415°E)
Time: 05:47:32
(UTC+00:00)

Daily predictions for brighter satellites

Satellite Brightness Start Highest point End
(mag) Time Altitude Azimuth Time Altitude Azimuth Time Altitude Azimuth
ATLAS 3B R/B 4.2 02:42:26 33° NNE 02:42:26 33° NNE 02:47:23 10° NE
Cosmos 1833 Rocket 4.5 02:53:19 27° ENE 02:53:19 27° ENE 02:56:14 10° NE
ACS3 Solar Sail 4.1 02:50:56 10° N 02:51:33 13° N 02:51:33 13° N
Cosmos 1980 Rocket 3.3 03:16:50 41° E 03:16:50 41° E 03:21:11 10° SE
USA 59 Rocket 2.8 03:21:19 14° E 03:21:19 14° E 03:22:06 10° E
ADEOS Rocket 4.3 03:12:09 10° N 03:16:46 40° N 03:16:46 40° N
Cosmos 2333 Rocket 4.3 03:26:46 17° N 03:28:32 19° NNE 03:32:32 10° ENE
USA 234 3.6 03:30:36 10° ENE 03:36:53 53° N 03:36:53 53° N
USA 238 DEB 4.4 03:44:19 45° SSW 03:44:19 45° SSW 03:50:19 10° SSE
USA 238 4.4 03:44:22 46° SSW 03:44:22 46° SSW 03:50:28 10° SSE
COSMOS 2455 3.5 03:45:29 44° N 03:46:41 50° NE 03:52:31 10° ESE
Cosmos 2360 Rocket 4.4 03:44:56 14° N 03:47:16 17° NNE 03:50:58 10° ENE
Cosmos 540 Rocket 4.3 03:46:39 38° SSE 03:48:02 48° ESE 03:52:58 10° NNE
SeaSat 1 4.3 03:53:11 10° NNE 03:54:48 20° N 03:54:48 20° N
Cosmos 1697 Rocket 4.1 04:02:26 25° S 04:02:26 25° S 04:04:50 10° S
RESURS DK-1 4.0 04:02:19 27° NE 04:02:19 27° NE 04:04:18 10° NE
NOSS 3-1 (C) 4.3 04:00:34 39° NNW 04:03:10 59° NE 04:11:25 10° ESE
Meteor 2-12 Rocket 4.4 03:59:17 10° S 04:05:24 82° E 04:11:32 10° NNE
Tiangong 1.0 04:07:02 12° SE 04:07:02 12° SE 04:07:28 10° SE
ATLAS 5 CENTAUR R/B 3.4 04:08:34 17° NE 04:08:34 17° NE 04:09:25 10° NE
IRS-1D 4.4 04:01:22 10° NNE 04:06:10 47° E 04:11:00 10° S
COSMO-SKYMED 1 3.6 04:03:11 10° SE 04:07:03 41° ENE 04:08:03 35° NNE
Cosmos 2322 Rocket 4.1 04:04:15 15° N 04:07:29 23° NE 04:11:56 10° E
Cosmos 2219 Rocket 4.4 04:05:09 12° N 04:08:07 17° NNE 04:11:39 10° ENE
Cosmos 1898 Rocket 4.0 04:12:41 32° N 04:14:53 56° ENE 04:20:02 10° SE
SJ-11-01 4.3 04:12:46 10° NNE 04:17:30 78° ESE 04:22:11 10° S
Cosmos 909 Rocket 4.3 04:21:22 44° WSW 04:23:40 63° NW 04:30:18 10° NE
NOSS 3-4 (A) 3.2 04:25:05 56° NW 04:25:26 57° NW 04:31:27 10° NE
NOSS 3-4 (C) 3.2 04:25:13 56° NW 04:25:36 58° NW 04:31:37 10° NE
Aureole 1 Rocket 4.2 04:22:40 26° NNW 04:26:53 89° ENE 04:34:21 10° SSE
Cosmos 468 Rocket 4.3 04:25:04 10° SSW 04:30:17 68° ESE 04:35:29 10° NNE
FengYun 1-2 T 4.1 04:24:54 10° NNE 04:30:35 82° WNW 04:36:14 10° SSW
SL-16 R/B 3.2 04:28:45 18° NNW 04:32:35 43° NE 04:37:57 10° ESE
ATLAS 3B R/B 4.1 04:29:41 24° NNW 04:32:55 32° N 04:39:47 10° ENE
CZ-2C R/B 3.9 04:28:41 10° N 04:30:59 24° NNW 04:30:59 24° NNW
Cosmos 1833 Rocket 3.0 04:35:01 44° NW 04:35:01 44° NW 04:40:19 10° NNE
Cosmos 1933 3.2 04:34:42 62° NNE 04:35:13 75° E 04:39:01 10° SSE
BREEZE-M DEB (TANK) 4.4 04:34:56 31° S 04:35:23 32° SSE 04:37:42 10° E
DNEPR-1 R/B 3.7 04:36:31 54° NNW 04:36:31 54° NNW 04:40:18 10° NE
Cosmos 2082 Rocket 2.8 04:31:14 10° S 04:36:44 57° ESE 04:42:14 10° NE
CZ-4 R/B 3.9 04:32:46 10° NNE 04:37:28 75° ESE 04:42:05 10° S
Orbus 7S? 4.3 04:39:19 28° NE 04:39:19 28° NE 04:41:05 10° ENE
ACS3 Solar Sail 3.8 04:35:07 10° NNW 04:35:35 11° NNW 04:35:35 11° NNW
Cosmos 1937 Rocket 3.6 04:41:20 22° NNW 04:44:37 70° ENE 04:49:43 10° SSE
Cosmos 2279 Rocket 4.2 04:42:44 28° NW 04:45:36 45° W 04:51:29 10° SSW
Cosmos 1763 Rocket 3.5 04:45:08 40° WSW 04:46:41 54° WNW 04:51:50 10° NNE
Cosmos 2278 4.4 04:49:46 15° NNW 04:54:20 52° NE 04:59:49 10° SE
Cosmos 1536 Rocket 3.5 04:51:44 10° SSW 04:56:08 61° WNW 05:00:31 10° N
Cosmos 2369 3.7 04:54:22 29° NW 04:57:20 65° WSW 05:02:56 10° SSE
Cosmos 1980 Rocket 2.7 04:58:38 34° W 04:59:44 37° WSW 05:04:49 10° S
Cosmos 372 Rocket 3.9 04:58:24 31° NW 05:00:39 57° WSW 05:05:36 10° S
BREEZE-M DEB (TANK) 2.7 05:00:28 47° SSW 05:00:55 56° SSE 05:04:53 10° E
NOSS 2-1 (D) 3.1 05:01:28 51° WNW 05:02:11 65° SW 05:06:33 10° SSE
SL-24 R/B - RUBIN 2 4.3 05:04:13 31° WSW 05:04:26 31° WSW 05:08:16 10° S
NOSS 2-1 (E) 3.0 05:03:47 47° WNW 05:04:43 76° SW 05:09:05 10° SE
Cosmos 2098 Rocket 4.2 05:03:45 27° NW 05:05:49 36° W 05:11:03 10° SSW
SKYMED 2 4.1 05:02:20 10° SSW 05:06:22 37° W 05:06:55 36° W
NOSS 3-1 (A) 4.2 05:02:31 20° NW 05:07:33 66° NE 05:16:00 10° ESE
IGS 5A 4.2 05:03:53 10° NNE 05:07:48 52° E 05:11:43 10° S
USA 59 Rocket -0.1 05:07:01 43° W 05:07:51 53° SW 05:12:16 10° SSE
Cosmos 2058 Rocket 3.6 05:05:03 10° N 05:09:28 59° ENE 05:13:51 10° SSE
Helios 1A Rocket 2.9 05:08:52 10° S 05:11:50 38° WSW 05:11:50 38° WSW
SL-4 R/B 1.3 05:11:52 50° WNW 05:12:35 76° N 05:15:47 10° E
Cosmos 2333 Rocket 2.7 05:08:47 12° NNW 05:14:03 62° NE 05:19:45 10° SE
USA 234 3.5 05:13:03 10° E 05:19:30 62° NNE 05:24:13 20° WNW
Cosmos 2026 Rocket 4.0 05:16:59 10° S 05:23:01 86° E 05:29:09 10° N
Timation 1 Rocket 4.4 05:19:14 10° SW 05:25:04 55° NW 05:30:57 10° NNE
NOSS 2-1 (C) 3.7 05:25:13 28° WNW 05:26:37 43° SW 05:30:52 10° SSE
Cosmos 540 Rocket 4.2 05:26:29 17° WSW 05:29:43 31° NW 05:34:18 10° N
Meteor 1-26 Rocket 4.1 05:25:49 10° NNW 05:31:18 88° WSW 05:36:54 10° S
Cosmos 2360 Rocket 2.7 05:26:54 10° NNW 05:32:30 58° NE 05:38:02 10° SE
COSMOS 2455 3.3 05:28:38 19° NW 05:32:34 42° WSW 05:38:09 10° S
SeaSat 1 4.3 05:32:00 10° N 05:34:01 13° NNW 05:34:26 12° NNW
Cosmos 1606 Rocket 4.3 05:33:26 16° NW 05:36:19 31° W 05:40:12 10° SSW
Cosmos 2237 Rocket 4.4 05:34:11 10° N 05:37:13 14° NNE 05:40:13 10° ENE
Meteor 2-3 Rocket 3.7 05:31:34 10° SSW 05:37:18 70° WNW 05:43:00 10° N
Cosmos 1553 Rocket 4.3 05:31:42 10° N 05:38:05 75° ENE 05:44:29 10° SSE
RESURS DK-1 3.6 05:37:39 19° NW 05:38:08 20° NW 05:41:08 10° N
Cosmos-2242 2.9 05:35:08 10° NNW 05:39:24 79° W 05:43:36 10° S
Tiangong 0.5 05:40:04 10° SW 05:41:42 13° SSW 05:43:21 10° SSE
Cosmos 1092 Rocket 4.0 05:36:08 10° SSW 05:42:27 80° WNW 05:48:44 10° N
COSMO-SKYMED 1 3.6 05:39:15 10° SSW 05:42:32 23° W 05:44:22 17° WNW
Cosmos 1346 Rocket 3.3 05:41:47 10° SW 05:45:07 31° WNW 05:48:28 10° N
IRS-1D 4.2 05:40:52 10° N 05:45:07 29° WNW 05:49:25 10° WSW
Cosmos 841 Rocket 3.5 05:40:15 10° SW 05:45:25 62° WNW 05:50:40 10° NNE
ATLAS 5 CENTAUR R/B 2.4 05:48:03 17° NW 05:49:00 19° NNW 05:51:36 10° NNE
Nadezhda 4 Rocket 4.4 05:45:14 10° SW 05:51:06 39° WNW 05:56:58 10° N
SL-08 R/B 4.3 05:47:02 10° SE 05:51:25 47° ENE 05:55:53 10° N
Cosmos 2322 Rocket 2.3 05:46:36 10° NNW 05:52:22 85° ENE 05:58:03 10° SSE
Okean 1 3.0 05:49:05 10° NNW 05:52:38 63° W 05:56:09 10° S
Cosmos 1437 Rocket 4.5 05:50:03 10° N 05:53:03 27° ENE 05:56:03 10° SE
Cosmos 2219 Rocket 2.9 05:47:50 10° NNW 05:53:25 53° NE 05:58:55 10° SE
NOSS 3-1 (C) 4.4 05:47:54 13° NW 05:54:08 51° WSW 06:02:32 10° SSE
Cosmos 1758 Rocket 4.3 05:51:29 10° S 05:55:50 57° E 06:00:11 10° NNE
Cosmos 1743 4.1 05:54:21 10° SSE 05:57:20 35° E 06:00:20 10° NNE
COSMOS 2406 3.2 05:55:01 10° SW 06:00:39 68° WNW 06:06:21 10° NNE
SJ-12 4.0 05:57:03 10° NNE 06:00:51 71° ESE 06:04:39 10° S
Cosmos 2333 4.4 05:55:46 10° NNW 06:01:34 75° ENE 06:07:16 10° SE
Cosmos 1484 Rocket 3.3 06:01:47 10° N 06:04:47 28° WNW 06:07:45 10° SW
Meteor 2-2 Rocket 4.5 06:00:01 10° NNW 06:05:29 51° W 06:11:00 10° SSW
SAR-Lupe-4 3.6 06:03:34 10° NNE 06:07:10 87° ESE 06:10:42 10° SSW
NOSS 8 (A) 4.4 06:05:11 11° NW 06:07:55 61° NE 06:11:00 10° SE
Cosmos 1733 2.0 06:06:30 10° S 06:08:32 64° E 06:10:35 10° NNE
IRS-1C 4.4 06:04:21 10° NNE 06:09:42 77° ESE 06:15:01 10° SSW
COSMOS 2428 4.1 06:04:47 10° NNW 06:09:53 32° NE 06:14:57 10° ESE
Cosmos 1238 Rocket 4.5 06:07:38 10° NNE 06:10:03 22° ENE 06:12:21 10° SE
SMAP 3.0 06:06:43 10° N 06:11:23 70° WNW 06:16:01 10° SSW
SAR-Lupe-1 4.1 06:08:37 10° NNE 06:12:16 85° E 06:15:52 10° SSW
Cosmos 220 Rocket 4.4 06:10:32 10° SW 06:14:17 35° WNW 06:18:06 10° N
SL-16 R/B 2.7 06:11:23 10° NW 06:16:40 41° WSW 06:21:55 10° S
NOSS 3-4 (A) 4.5 06:12:41 10° WNW 06:17:33 28° N 06:23:03 10° NE
NOSS 3-4 (C) 4.4 06:12:50 10° WNW 06:17:42 28° N 06:23:12 10° NE
Landsat 7 3.7 06:13:42 10° N 06:18:22 74° WNW 06:23:00 10° SSW
IRIDIUM 104 4.4 06:13:39 10° SSW 06:18:49 62° W 06:24:01 10° N
ARIANE 5 R/B 2.6 06:14:52 10° NNE 06:20:06 85° WNW 06:25:20 10° SSW
Cosmos 1833 Rocket 4.3 06:17:14 10° WNW 06:20:21 15° NNW 06:23:30 10° N
YAOGAN 1 4.2 06:16:57 10° NNE 06:20:58 39° E 06:24:58 10° SSE
Cosmos 2082 Rocket 2.9 06:16:04 10° WSW 06:21:06 33° NW 06:26:10 10° NNE
Cosmos 1626 Rocket 3.5 06:16:59 10° SSW 06:21:23 70° W 06:25:49 10° N
USA 267 4.2 06:17:45 10° ENE 06:24:08 53° SE 06:30:30 10° SW
ATLAS 3B R/B 3.6 06:17:50 10° NW 06:25:31 50° NNE 06:32:54 10° ESE
MOS 1 Rocket 3.6 06:20:37 10° NNE 06:26:00 83° WNW 06:31:21 10° SSW
CZ-2D R/B 3.1 06:25:38 10° N 06:28:40 42° WNW 06:31:41 10° SW
YAOGAN 11 4.1 06:26:33 10° SSE 06:30:56 78° WSW 06:35:17 10° NNW
